Weather Roundup
Issued by NWS Chicago, IL

Home | Current Version | Previous Version | Graphics & Text | Print | Product List | Glossary On
Versions: 1 2 3 4 5 6 7 8 9 10 11 12 13 14 15 16 17 18 19 20 21 22 23 24 25 26 27 28 29 30 31 32 33 34 35 36 37 38 39 40 41 42 43 44 45 46 47 48 49 50
000
NZUS59 KLOT 191500
HRRLOT

CHICAGO AREA WEATHER ROUNDUP
NATIONAL WEATHER SERVICE CHICAGO/ROMEOVILLE IL
1000 AM CDT SAT APR 19 2014

NOTE: "FAIR" INDICATES FEW OR NO CLOUDS BELOW 12,000 FEET WITH NO
SIGNIFICANT WEATHER AND/OR OBSTRUCTIONS TO VISIBILITY.

* THESE STATIONS ARE NOT UNDER NWS QUALITY CONTROL. THEY ALSO MAY NOT
  REPORT WEATHER SUCH AS PRECIPITATION OR FOG.

ILZ005-006-012>014-019>023-191600-
NORTHEAST ILLINOIS

CITY           SKY/WX    TMP DP  RH WIND       PRES   REMARKS
OHARE          MOSUNNY   47  33  58 E9        30.38S
MIDWAY         MOSUNNY   48  37  65 E7        30.38S
AURORA         SUNNY     52  34  50 E12       30.36S
WAUKEGAN       SUNNY     40  32  73 E12       30.39F
DUPAGE AIRPORT SUNNY     50  34  54 E12       30.36F
WHEELING       SUNNY     45  34  65 E7        30.40S
NORTHERLY IS     N/A     43  35  73 NE9         N/A
$$

WIZ051-052-058>065-066-070>072-191600-
SOUTHEAST WISCONSIN

CITY           SKY/WX    TMP DP  RH WIND       PRES   REMARKS
MILWAUKEE      PTSUNNY   41  32  70 E12       30.42F
KENOSHA*       SUNNY     41  33  73 E13       30.40F
RACINE*        SUNNY     39  32  76 SE12      30.43F
WAUKESHA       SUNNY     39  30  70 E13       30.40S
$$

INZ001>003-010>013-019-020-191600-
NORTHWEST INDIANA

CITY           SKY/WX    TMP DP  RH WIND       PRES   REMARKS
GARY*          SUNNY     50  39  66 NE6       30.38F
MICHIGAN CITY* NOT AVBL
RENSSELAER*    NOT AVBL
VALPARAISO     SUNNY     52  37  56 E10       30.38S
$$

LMZ740>746-191600-
SOUTHERN LAKE MICHIGAN

STATION/POSITION TIME  SKY/WX   TEMP WIND        PRES    VSBY
                                AIR  DIR/SP/G
                 (UTC)          (F)  (DEG/KT/KT) (MB)    (MI)
HARRISON CRIB    1400            38   80/ 12/ 14   N/A
BURNHAM HARBOR   1500            42   50/  7/ 13   N/A
CALUMET HARBOR   1400            40   50/  8/ 10 1029.5F
BURNS HARBOR     NOT AVBL
MICHIGAN CITY    1400            46   80/  8/ 11   N/A
$$

ABBREVIATIONS USED IN REMARKS
   TC - TEMPERATURE IN CELSIUS
  WCI - WIND CHILL INDEX
   HX - HEAT INDEX
  VSB - VISIBILITY
$$



USA.gov is the U.S. government's official web portal to all federal, state and local government web resources and services.